Wetbulb
43.71 43.77 44.23 45.21 45.83 45.74 45.57 45.69 46.51 46.72 46.38 45.73 45.77 46.07 46.55 47.29 47.91 48.76 49.76 50.87 51.74 52.47 53.07 53.77 54.43 54.59 54.64 54.63 54.94 55.61 56.33 56.95 57.76 58.57 59.35 59.79 59.99 59.64 59.08 58.74 58.47 58.08 57.69 57.34 57.47 58.20 59.23 59.90 59.80 59.22 58.55 58.37 58.28 58.01 57.60 57.24 57.69 57.74 57.42 57.24 57.42 57.64 57.68 57.64 57.36 56.96 56.38 55.93 55.39
44.10 44.07 44.66 46.13 46.75 46.44 45.87 45.91 46.08 46.12 45.99 45.52 45.64 45.52 45.64 46.24 46.87 47.49 48.36 49.46 50.90 51.98 52.86 53.77 53.84 53.84 53.79 54.00 54.51 55.32 56.26 56.93 57.37 58.05 58.72 59.00 58.60 58.03 57.38 56.81 56.46 56.47 56.56 56.48 57.16 58.42 59.46 59.55 59.37 58.64 57.79 57.01 57.11 56.02 54.89 54.49 56.25 56.97 56.88 56.30 55.52 55.43 55.70 56.33 55.83 55.29 54.84 54.35 54.03
44.19 44.28 44.51 44.61 44.30 44.41 44.69 45.13 44.87 44.39 43.86 43.87 44.23 44.49 44.70 45.21 45.92 46.54 47.01 47.54 48.49 49.86 51.32 52.67 52.81 52.94 53.16 53.52 53.90 54.50 55.36 56.20 56.60 57.14 57.46 57.28 56.36 55.88 55.75 56.07 56.03 56.12 56.40 56.72 57.16 58.06 58.91 59.27 59.23 58.38 57.02 55.48 55.39 54.12 52.50 51.50 53.67 54.62 54.35 52.68 51.41 51.64 52.22 52.22 51.27 51.05 51.18 51.37 51.55
44.37 44.37 44.37 44.41 44.15 44.11 44.43 45.21 44.77 44.32 44.19 44.47 43.81 43.60 43.75 44.36 45.00 45.46 45.63 45.43 46.31 47.69 49.21 50.61 51.29 51.79 52.33 52.98 53.34 53.76 54.34 55.33 55.64 55.87 55.55 54.80 53.72 53.18 53.18 53.58 54.40 55.04 55.63 56.08 56.62 57.16 57.56 57.60 57.42 56.65 55.88 55.48 54.80 53.44 51.95 51.05 52.13 51.59 50.14 48.24 48.47 49.19 49.64 49.10 48.65 48.74 48.88 48.51 47.83
45.00 45.14 45.22 45.27 44.83 44.56 44.33 44.33 44.21 44.17 44.31 44.50 44.59 44.68 44.81 44.86 44.65 44.30 44.16 44.64 45.17 46.00 46.89 47.56 48.60 50.01 51.23 51.77 52.73 53.18 53.59 54.17 54.80 54.17 53.13 52.32 51.55 51.28 51.55 52.23 53.13 53.95 54.58 55.17 55.71 55.71 55.39 55.21 54.94 54.44 53.99 53.89 52.81 51.59 50.68 50.64 50.41 49.33 48.15 47.56 48.06 48.29 48.11 47.56 47.16 46.93 46.52 45.57 44.71
45.41 45.36 45.22 45.09 44.82 44.60 44.37 44.19 43.79 43.75 43.93 44.07 44.28 44.59 45.08 46.12 45.81 45.19 44.65 44.66 44.62 45.09 46.12 47.56 48.51 50.19 51.42 50.92 51.64 51.82 51.55 50.92 50.87 50.69 50.42 50.10 50.14 50.60 51.28 51.95 52.45 52.86 53.45 53.99 53.49 52.99 52.86 53.44 52.77 51.77 50.87 50.32 49.42 49.01 49.15 49.82 49.55 48.92 48.06 47.38 47.16 46.97 46.61 45.80 44.89 44.62 44.62 44.49 44.03
45.31 45.36 45.40 45.31 45.00 44.82 44.50 43.96 43.46 43.10 43.05 43.54 43.45 43.63 44.21 44.94 45.25 45.34 45.52 46.43 47.93 48.79 49.60 50.64 50.28 50.42 50.51 50.01 50.24 50.06 49.83 49.83 49.64 49.15 48.88 49.42 49.19 49.51 50.10 50.32 50.37 51.05 51.86 52.08 51.86 51.63 51.54 51.31 50.86 50.28 49.73 49.28 48.38 47.92 48.01 48.87 48.60 47.92 47.07 46.21 45.80 45.30 44.62 43.54 43.36 43.94 44.49 44.49 43.63
44.86 45.00 45.09 44.95 44.55 44.09 43.69 43.37 43.36 43.54 43.94 44.53 43.99 44.03 44.44 45.12 46.16 47.16 47.65 47.07 47.70 48.15 48.69 49.51 48.51 48.15 48.24 48.29 48.38 48.20 48.24 48.60 49.46 49.37 49.28 49.82 50.10 50.59 50.95 51.09 51.09 51.18 51.45 51.76 51.72 51.31 50.77 50.23 49.64 49.24 48.83 48.42 47.56 46.79 46.39 46.89 46.98 46.61 45.94 45.12 44.67 44.49 44.49 44.67 44.49 44.40 44.13 43.50 42.60
44.22 44.22 44.09 43.82 43.54 43.32 43.23 43.36 43.50 43.95 44.17 43.90 43.72 43.94 44.39 45.12 45.57 46.21 46.30 45.62 45.98 46.25 46.88 48.06 47.20 46.93 46.93 47.07 47.07 47.25 47.70 48.51 48.96 49.24 49.51 49.91 50.23 50.45 50.63 50.73 50.59 50.45 50.45 50.63 50.54 50.13 49.73 49.46 48.96 48.60 48.29 47.88 46.98 46.12 45.48 45.67 45.67 45.35 44.85 44.21 43.81 43.72 43.72 43.72 43.27 43.00 42.69 42.15 41.29
43.36 43.32 43.27 43.32 43.18 43.45 43.77 43.68 43.77 43.77 43.63 43.49 43.54 44.03 44.80 46.07 45.39 44.89 44.94 45.84 46.34 46.57 46.70 46.93 46.66 46.66 46.84 46.75 47.16 47.34 47.52 47.79 48.42 49.10 49.68 50.05 50.04 50.04 49.96 49.91 49.59 49.46 49.46 49.59 49.59 49.37 49.05 48.83 48.29 47.88 47.52 47.16 46.43 45.89 45.58 45.44 44.95 44.45 43.99 43.81 43.31 42.81 42.36 42.14 41.96 41.83 41.61 41.07 40.16
42.64 42.82 43.00 43.22 43.36 43.86 44.22 43.95 44.18 44.18 44.04 43.90 43.85 44.31 45.08 46.12 45.57 45.30 45.30 45.57 46.39 46.66 46.66 46.48 46.61 47.07 47.52 47.88 48.38 48.69 48.87 49.23 49.50 49.64 49.73 49.50 49.41 49.18 48.96 48.82 48.64 48.56 48.51 48.60 48.78 48.74 48.46 48.19 47.43 46.93 46.43 46.07 45.62 45.13 44.76 44.63 44.27 43.73 43.32 42.95 42.50 41.96 41.42 41.19 41.24 41.11 40.66 40.08 39.26
42.42 42.82 42.96 42.96 43.05 43.28 43.68 43.86 44.09 44.04 44.04 44.08 44.31 44.63 45.03 45.53 45.30 45.48 45.80 46.12 47.25 47.79 47.65 47.02 47.25 47.88 48.65 49.18 49.23 49.36 49.41 49.36 49.36 49.18 48.95 48.73 48.50 48.32 48.10 48.01 47.83 47.70 47.70 47.79 48.01 48.01 47.83 47.34 46.66 45.94 45.35 45.12 45.17 44.90 44.54 44.19 43.60 42.97 42.33 41.92 41.52 41.11 40.61 40.29 40.20 40.11 39.80 39.27 38.73
42.29 42.60 42.83 42.74 42.78 43.01 43.23 43.55 43.77 43.82 43.82 43.91 44.22 44.67 45.26 46.03 45.89 46.07 46.66 47.74 48.24 48.55 48.50 48.33 48.24 48.51 48.87 49.09 49.04 49.09 49.04 48.91 48.77 48.59 48.37 48.05 47.87 47.61 47.34 47.16 46.93 46.66 46.62 46.66 47.02 47.07 46.84 46.35 45.76 45.08 44.36 43.95 43.86 43.77 43.60 43.24 42.66 41.93 41.20 40.61 40.29 39.93 39.57 39.30 39.17 39.04 38.82 38.68 38.23
41.80 42.02 42.25 42.34 42.65 43.01 43.23 43.37 43.86 43.91 43.72 43.41 43.45 44.18 45.21 46.44 46.98 46.84 46.84 47.79 48.05 48.14 48.32 48.41 48.45 48.54 48.58 48.54 48.58 48.45 48.36 48.23 48.00 47.74 47.42 47.16 46.89 46.53 46.17 45.77 45.55 45.32 45.18 45.13 45.36 45.36 45.27 44.90 44.32 43.55 42.78 41.96 41.69 41.60 41.70 41.66 41.30 40.71 40.12 39.53 39.25 38.94 38.84 38.67 38.50 38.23 38.01 37.74 37.46
41.71 41.80 41.98 42.20 42.47 42.92 43.36 43.32 43.77 43.54 43.27 43.27 43.77 44.86 46.03 47.07 47.47 47.34 47.20 47.25 47.33 47.38 47.42 47.33 47.33 47.38 47.42 47.46 47.42 47.33 47.29 47.11 46.84 46.44 46.04 45.68 45.37 45.06 44.61 44.17 43.89 43.66 43.48 43.34 43.29 43.21 43.02 42.83 42.51 41.97 41.34 40.70 40.47 40.43 40.35 40.35 40.08 39.85 39.49 39.21 38.89 38.62 38.39 38.08 37.58 36.91 36.28 36.05 36.41
41.98 41.98 42.03 42.16 42.33 42.65 43.00 43.09 43.27 43.23 43.36 44.27 45.00 45.54 46.13 46.75 46.89 46.93 46.84 46.58 46.58 46.49 46.35 46.22 46.18 46.22 46.35 46.49 46.40 46.22 46.04 45.82 45.51 45.06 44.66 44.21 43.90 43.54 43.14 42.74 42.37 42.10 41.82 41.55 41.36 41.18 41.17 41.12 41.12 40.99 40.76 40.44 40.30 40.17 40.08 39.99 39.67 39.44 39.13 38.81 38.58 38.35 37.99 37.49 36.41 35.28 34.46 34.42 35.64
43.37 43.32 42.95 42.21 42.11 42.11 42.29 42.46 43.15 43.83 44.43 45.02 45.33 45.51 45.65 45.78 45.87 45.82 45.82 45.65 45.51 45.29 45.02 45.02 45.06 45.06 45.15 45.24 45.29 45.11 44.84 44.53 44.17 43.77 43.41 42.92 42.56 42.21 41.84 41.52 41.25 41.03 40.76 40.44 40.16 39.96 40.00 40.18 40.44 40.54 40.63 40.49 40.30 40.08 39.90 39.67 39.31 38.86 38.45 38.27 38.09 37.86 37.41 36.91 35.60 34.69 34.60 35.65 36.32
44.76 44.45 43.72 42.39 41.98 42.07 42.53 43.17 43.67 44.13 44.40 44.36 44.49 44.54 44.59 44.63 44.54 44.58 44.49 44.63 44.45 44.13 43.95 43.91 44.00 44.04 43.94 43.85 43.99 43.99 43.77 43.32 42.96 42.65 42.34 41.90 41.59 41.23 40.87 40.64 40.51 40.42 40.24 40.05 39.82 39.76 39.83 39.91 40.14 40.23 40.23 40.09 39.99 39.81 39.54 39.13 38.68 38.23 37.91 37.64 37.37 37.05 36.64 36.19 35.69 35.56 35.88 37.01 36.92
44.81 44.49 43.85 43.07 43.23 43.51 43.91 44.19 44.01 43.74 43.65 43.61 43.61 43.57 43.57 43.53 43.48 43.38 43.42 43.50 43.68 43.50 43.32 43.18 43.18 43.18 43.18 43.05 43.09 43.22 43.09 42.60 42.16 41.90 41.68 41.41 41.11 40.79 40.48 40.20 40.12 40.07 39.97 39.88 39.82 39.77 39.77 39.81 39.81 39.71 39.71 39.56 39.33 39.14 38.82 38.46 38.19 37.83 37.60 37.37 37.19 37.01 36.87 36.69 36.70 36.65 36.70 37.01 36.69
44.59 44.50 44.36 44.14 44.28 44.24 44.06 43.97 43.71 43.49 43.36 43.27 43.04 42.86 42.85 42.77 42.77 42.58 42.48 42.51 42.82 42.82 42.74 42.55 42.50 42.41 42.50 42.55 42.42 42.46 42.50 42.40 41.89 41.58 41.40 41.27 40.96 40.65 40.42 40.20 40.02 39.89 39.80 39.67 39.57 39.52 39.43 39.39 39.35 39.26 39.08 38.93 38.64 38.40 38.11 37.97 37.74 37.56 37.46 37.42 37.19 37.14 36.96 36.87 36.74 36.56 36.42 36.24 35.87
44.18 44.37 44.42 44.28 44.02 43.84 43.66 43.44 43.36 43.23 43.09 42.87 42.60 42.46 42.41 42.45 42.36 42.17 42.12 42.19 42.24 42.19 42.06 41.91 41.82 41.78 41.78 41.87 41.78 41.78 41.86 41.99 41.56 41.30 41.13 40.99 40.81 40.68 40.46 40.29 39.93 39.67 39.45 39.27 39.18 39.10 38.97 38.97 38.88 38.80 38.62 38.43 38.06 37.77 37.61 37.37 37.26 37.11 37.01 36.96 36.82 36.64 36.51 36.46 36.19 36.01 35.69 35.24 34.15
44.01 44.20 44.16 44.02 43.75 43.44 43.21 43.14 43.10 42.88 42.65 42.38 42.24 42.24 42.19 42.09 42.09 42.12 42.16 42.29 42.07 41.84 41.60 41.50 41.36 41.32 41.28 41.33 41.24 41.20 41.20 41.32 41.03 40.81 40.68 40.54 40.41 40.28 40.20 39.99 39.51 39.15 38.88 38.74 38.65 38.65 38.65 38.62 38.55 38.38 38.11 37.95 37.69 37.41 37.26 37.01 36.79 36.55 36.39 36.25 36.11 36.06 35.92 35.74 35.51 35.28 34.88 34.32 32.15
43.98 43.80 43.62 43.34 43.35 43.26 43.14 42.98 42.71 42.44 42.12 41.84 41.83 41.83 41.74 41.73 41.77 41.81 41.90 41.90 41.68 41.36 41.18 41.17 41.11 41.15 41.15 41.08 40.99 40.77 40.60 40.41 40.28 40.20 40.11 39.89 39.67 39.54 39.46 39.19 38.62 38.49 38.45 38.45 38.51 38.49 38.37 38.23 38.09 37.91 37.73 37.59 37.34 37.16 37.00 36.73 36.43 36.21 35.91 35.68 35.57 35.38 35.20 34.97 34.79 34.56 34.24 33.74 32.55
43.63 43.67 43.76 43.72 43.46 43.28 43.02 42.76 42.40 42.08 41.76 41.43 41.47 41.46 41.42 41.38 41.29 41.24 41.16 41.07 40.77 40.67 40.58 40.62 40.60 40.72 40.73 40.74 40.70 40.48 40.25 39.97 39.75 39.66 39.58 39.59 39.41 39.18 39.04 38.80 38.45 38.40 38.49 38.70 38.85 38.80 38.53 38.18 37.79 37.57 37.57 37.39 37.14 36.92 36.72 36.44 36.23 35.94 35.56 35.29 34.96 34.76 34.66 34.52 34.48 34.39 34.33 34.24 33.88
43.76 43.76 43.67 43.54 43.28 43.02 42.75 42.53 42.17 41.94 41.76 41.72 41.63 41.49 41.31 41.13 40.92 40.74 40.52 40.33 40.15 40.06 40.01 40.09 40.13 40.29 40.33 40.38 40.34 40.25 40.07 39.84 39.61 39.43 39.39 39.47 39.56 39.69 39.72 39.79 39.87 39.96 40.19 40.56 40.60 40.39 39.85 39.16 38.37 37.81 37.44 37.21 36.88 36.61 36.31 36.05 35.89 35.57 35.33 34.90 34.63 34.30 34.01 33.78 33.77 33.69 33.61 33.74 34.25
43.44 43.31 43.09 42.88 42.75 42.61 42.43 42.16 41.98 41.80 41.67 41.67 41.54 41.32 41.19 41.01 40.84 40.57 40.12 39.80 39.75 39.65 39.65 39.64 39.81 40.07 40.15 39.87 39.84 39.88 39.88 39.87 39.79 39.70 39.65 39.73 39.94 40.24 40.54 40.68 40.89 41.16 41.58 41.95 42.01 41.65 41.12 40.40 39.63 38.52 37.40 36.56 36.39 36.01 35.58 35.31 35.16 34.87 34.52 34.29 34.07 33.79 33.33 32.99 32.84 32.64 32.50 32.31 32.40
42.95 42.65 42.51 42.43 42.16 42.02 41.83 41.87 41.70 41.60 41.43 41.30 41.08 40.90 40.78 40.70 40.48 40.16 39.80 39.48 39.39 39.30 39.25 39.22 39.35 39.70 39.76 39.35 39.26 39.24 39.40 39.58 39.65 39.75 39.84 40.00 40.30 40.54 40.97 41.29 41.61 41.89 42.31 42.85 42.69 42.38 41.80 41.03 40.09 38.68 37.02 35.25 35.21 35.15 34.87 34.43 34.10 33.91 33.66 33.47 33.33 33.14 32.90 32.56 32.42 32.39 32.25 31.97 31.85
42.37 42.20 41.94 41.80 41.52 41.38 41.37 41.37 41.15 40.89 40.80 40.71 40.58 40.45 40.37 40.20 40.02 39.75 39.51 39.33 39.24 39.10 38.90 38.83 38.93 38.98 38.98 38.72 38.71 38.75 38.88 39.22 39.57 39.84 40.24 40.63 40.84 41.11 41.37 41.60 41.88 42.32 42.71 43.05 42.87 42.34 41.72 40.96 40.01 38.84 37.34 35.27 34.25 34.13 34.22 33.86 33.68 33.46 33.24 33.08 32.84 32.57 32.37 32.09 32.01 31.94 31.79 31.61 31.61
42.01 41.75 41.44 41.12 40.93 40.88 40.84 40.66 40.43 40.30 40.26 40.18 40.13 40.05 39.88 39.69 39.51 39.33 39.23 39.14 39.02 38.90 38.83 38.74 38.77 38.65 38.38 38.28 38.45 38.76 38.98 39.28 39.71 40.25 40.70 41.06 41.11 41.25 41.39 41.61 41.80 42.33 42.81 43.06 42.66 42.13 41.51 40.75 39.89 38.95 37.86 36.35 34.70 34.07 34.00 33.71 33.39 33.04 32.82 32.51 32.27 31.96 31.64 31.47 31.31 31.21 31.07 30.89 30.67
41.65 41.35 40.95 40.58 40.44 40.35 40.21 40.03 39.90 39.86 39.78 39.82 39.55 39.41 39.27 39.11 38.93 38.83 38.69 38.54 38.54 38.61 38.73 38.83 38.61 38.40 38.27 38.48 38.87 39.22 39.48 39.74 40.16 40.58 40.77 40.61 40.63 40.72 40.94 41.26 41.35 42.06 42.59 42.89 42.40 41.83 41.16 40.57 39.76 38.95 37.96 36.74 34.93 33.82 33.24 33.12 32.75 32.46 32.23 31.99 31.69 31.36 31.12 30.88 30.47 30.17 30.03 29.79 29.55
41.04 40.77 40.41 40.09 39.82 39.63 39.49 39.41 39.36 39.23 39.05 38.80 38.73 38.73 38.66 38.73 38.49 38.43 38.37 38.40 38.48 38.75 38.89 38.80 38.61 38.56 38.68 38.99 39.35 39.71 40.02 40.17 40.36 40.37 40.33 40.24 40.41 40.40 40.49 40.72 41.13 41.80 42.37 42.50 42.05 41.47 40.75 39.99 39.22 38.28 37.24 35.95 34.20 32.85 32.20 32.05 31.77 31.58 31.40 31.30 31.11 30.97 30.82 30.38 29.64 29.19 28.83 28.66 28.49
40.28 39.96 39.69 39.37 39.05 38.91 38.91 38.92 38.82 38.63 38.43 38.22 38.37 38.51 38.47 38.33 38.39 38.42 38.56 38.66 38.66 38.71 38.80 38.75 38.79 39.09 39.26 39.44 39.54 39.63 39.59 39.55 39.55 39.55 39.55 39.51 39.41 39.54 39.77 40.14 40.55 41.26 41.97 42.06 41.61 40.98 40.31 39.54 38.64 37.69 36.62 35.55 33.65 31.92 30.82 30.68 30.28 30.17 30.17 30.06 29.60 28.83 28.20 27.90 27.76 27.65 27.74 27.87 27.98
39.69 39.46 39.10 38.83 38.60 38.60 38.60 38.69 38.64 38.57 38.47 38.38 38.46 38.37 38.17 38.12 38.25 38.44 38.54 38.69 38.73 38.71 38.75 38.97 39.02 39.10 39.13 39.09 39.05 38.92 38.83 38.84 38.93 39.02 39.01 38.69 38.14 38.00 38.32 39.09 39.79 40.84 41.55 41.53 41.08 40.54 39.86 39.10 38.29 37.49 36.51 35.46 33.13 31.22 29.92 29.77 29.29 28.82 28.22 27.49 27.10 26.80 26.79 27.08 27.35 27.50 27.55 27.61 27.50
39.43 39.11 38.89 38.70 38.56 38.47 38.52 38.56 38.55 38.45 38.27 38.16 38.20 38.11 38.08 38.18 38.22 38.35 38.62 38.98 39.20 39.24 39.19 39.28 39.14 39.01 38.88 38.79 38.48 38.30 38.30 38.35 38.16 38.15 38.11 37.97 37.10 36.91 37.18 37.95 39.20 40.41 41.14 40.96 40.64 40.18 39.51 38.79 38.12 37.33 36.37 35.14 32.39 30.73 29.87 29.39 28.58 27.54 26.39 25.52 25.60 25.70 25.79 25.94 26.05 26.04 26.09 26.20 25.90
39.33 39.06 38.81 38.62 38.57 38.53 38.48 38.48 38.41 38.24 38.07 37.85 37.92 38.08 38.31 38.35 38.52 38.73 39.13 39.54 39.50 39.27 39.00 38.95 38.91 38.79 38.57 38.44 38.12 37.86 37.64 37.51 37.44 37.48 37.62 37.85 37.89 37.97 37.92 37.87 38.89 39.97 40.53 40.35 39.99 39.62 39.08 38.45 37.70 36.70 35.27 33.37 30.15 28.76 28.16 27.65 26.98 26.18 25.51 25.19 25.26 25.24 25.18 25.28 24.76 24.46 24.04 23.50 22.71
39.27 38.90 38.51 38.34 38.34 38.39 38.44 38.35 38.28 38.13 38.05 37.94 37.97 38.21 38.46 38.72 38.89 39.17 39.40 39.55 39.01 38.60 38.28 38.24 38.20 38.07 37.80 37.58 37.40 37.23 37.05 36.46 36.27 36.30 36.40 36.36 36.21 36.79 37.42 37.83 38.27 39.12 39.82 39.75 39.43 39.02 38.56 37.89 36.98 35.68 33.74 30.68 28.11 27.14 26.93 26.46 25.80 25.30 24.95 24.80 24.64 24.17 23.67 23.36 22.56 22.21 21.76 21.12 20.64
38.94 38.47 38.12 38.06 38.15 38.25 38.34 38.35 38.31 38.22 38.16 38.16 38.24 38.36 38.58 38.66 38.76 38.99 39.01 38.93 38.16 37.74 37.51 37.51 37.30 37.06 36.84 36.66 36.48 36.40 36.27 35.67 35.12 35.31 35.82 35.92 35.51 35.90 36.47 36.74 36.90 37.84 38.86 39.27 38.91 38.46 37.92 37.22 36.19 34.54 32.05 28.36 26.53 26.06 26.05 25.50 24.99 24.67 24.18 23.24 22.48 21.80 21.16 20.69 20.04 19.56 19.47 19.98 22.10
38.56 38.36 38.22 38.22 38.27 38.40 38.44 38.48 38.34 38.24 38.23 38.27 38.40 38.54 38.62 38.58 38.40 38.46 38.48 38.31 37.48 36.97 36.74 36.65 36.38 36.20 36.20 36.12 35.96 35.93 35.85 35.66 35.20 35.47 36.06 36.60 36.56 36.23 35.80 35.51 35.38 36.38 37.74 38.73 38.48 38.04 37.42 36.69 35.64 33.96 31.49 27.97 26.40 25.89 25.67 24.81 23.73 22.93 22.17 21.19 20.97 20.22 19.09 17.95 17.08 16.82 17.71 20.18 27.74
38.66 38.57 38.53 38.53 38.53 38.52 38.43 38.42 38.32 38.28 38.31 38.35 38.35 38.36 38.32 38.14 37.96 37.97 37.86 37.75 37.13 36.57 36.21 35.93 35.74 35.80 35.94 35.97 35.65 35.53 35.63 35.94 36.15 36.20 36.19 35.99 36.05 35.97 35.60 34.88 34.42 35.38 36.84 38.13 37.93 37.50 36.98 36.43 35.51 34.14 31.93 28.22 25.13 24.10 23.76 22.88 21.82 20.75 19.58 18.39 18.31 18.07 17.41 15.81 14.92 15.05 16.45 19.17 28.80
38.91 38.87 38.73 38.68 38.64 38.50 38.37 38.32 38.36 38.36 38.40 38.32 38.05 37.87 37.74 37.60 37.60 37.53 37.50 37.14 36.72 36.31 35.94 35.57 35.43 35.57 35.64 35.66 34.92 34.55 34.41 34.58 34.86 35.22 35.46 35.45 35.61 35.63 35.08 33.76 33.61 34.40 35.91 37.44 37.44 37.15 36.79 36.25 35.41 33.95 31.01 25.74 21.91 20.78 20.73 20.10 19.48 18.55 17.32 15.70 15.68 16.24 16.59 15.75 14.60 14.51 15.19 16.27 22.11
38.95 38.82 38.68 38.59 38.50 38.46 38.32 38.17 38.13 38.17 38.18 38.01 37.74 37.60 37.55 37.42 37.21 36.90 36.63 36.38 36.03 35.76 35.48 35.11 34.90 34.86 34.88 34.81 34.07 33.37 32.87 32.62 32.58 32.64 32.79 32.81 33.05 32.66 31.37 28.85 29.21 29.87 31.25 34.14 36.41 36.95 36.59 36.03 35.14 33.62 30.65 24.84 19.77 18.11 18.16 18.10 18.02 17.39 16.17 14.41 13.53 13.99 15.04 15.79 15.43 15.26 15.10 14.85 15.45
MSLP
1016.52 1016.48 1016.44 1016.40 1016.36 1016.32 1016.28 1016.20 1016.12 1016.12 1016.08 1016.08 1016.00 1015.96 1015.92 1015.92 1015.84 1015.80 1015.68 1015.64 1015.56 1015.44 1015.28 1015.16 1015.08 1014.96 1014.88 1014.84 1014.80 1014.72 1014.68 1014.68 1014.64 1014.64 1014.64 1014.68 1014.68 1014.72 1014.84 1014.96 1015.08 1015.24 1015.40 1015.56 1015.68 1015.84 1015.96 1016.12 1016.28 1016.56 1016.84 1017.00 1017.20 1017.36 1017.48 1017.56 1017.64 1017.68 1017.80 1017.96 1018.04 1018.12 1018.20 1018.32 1018.40 1018.52 1018.64 1018.72 1018.80
1016.60 1016.52 1016.52 1016.40 1016.40 1016.36 1016.32 1016.24 1016.12 1016.08 1016.04 1016.04 1015.96 1015.96 1015.88 1015.88 1015.80 1015.76 1015.68 1015.56 1015.44 1015.32 1015.24 1015.12 1015.04 1014.96 1014.84 1014.72 1014.68 1014.60 1014.60 1014.56 1014.52 1014.52 1014.52 1014.56 1014.60 1014.68 1014.80 1014.96 1015.08 1015.16 1015.28 1015.48 1015.64 1015.80 1015.92 1016.04 1016.24 1016.52 1016.76 1016.96 1017.12 1017.28 1017.44 1017.52 1017.52 1017.56 1017.72 1017.96 1018.04 1018.08 1018.12 1018.24 1018.36 1018.44 1018.56 1018.68 1018.76
1016.64 1016.56 1016.52 1016.52 1016.48 1016.40 1016.36 1016.24 1016.20 1016.12 1016.12 1016.04 1015.96 1015.92 1015.88 1015.88 1015.80 1015.72 1015.60 1015.48 1015.40 1015.32 1015.24 1015.12 1015.04 1014.92 1014.80 1014.68 1014.56 1014.52 1014.52 1014.52 1014.52 1014.52 1014.52 1014.56 1014.68 1014.76 1014.88 1015.00 1015.12 1015.24 1015.28 1015.40 1015.52 1015.68 1015.80 1015.96 1016.12 1016.40 1016.68 1016.92 1017.12 1017.28 1017.48 1017.60 1017.56 1017.56 1017.72 1017.96 1018.12 1018.12 1018.20 1018.32 1018.40 1018.52 1018.60 1018.72 1018.84
1016.64 1016.60 1016.56 1016.52 1016.52 1016.44 1016.40 1016.28 1016.20 1016.12 1016.08 1016.00 1015.96 1015.92 1015.92 1015.88 1015.80 1015.72 1015.60 1015.52 1015.44 1015.36 1015.24 1015.16 1015.08 1014.96 1014.84 1014.76 1014.64 1014.52 1014.48 1014.48 1014.52 1014.56 1014.64 1014.76 1014.88 1014.96 1015.08 1015.12 1015.20 1015.24 1015.28 1015.40 1015.52 1015.64 1015.72 1015.88 1016.04 1016.28 1016.56 1016.84 1017.04 1017.24 1017.40 1017.52 1017.52 1017.64 1017.84 1018.08 1018.20 1018.24 1018.36 1018.48 1018.52 1018.60 1018.68 1018.84 1018.96
1016.64 1016.60 1016.52 1016.52 1016.44 1016.40 1016.36 1016.28 1016.20 1016.12 1016.04 1016.00 1015.96 1015.96 1015.88 1015.88 1015.80 1015.76 1015.68 1015.64 1015.52 1015.40 1015.32 1015.24 1015.16 1015.04 1014.92 1014.84 1014.72 1014.60 1014.52 1014.52 1014.60 1014.68 1014.84 1014.92 1015.04 1015.12 1015.20 1015.20 1015.24 1015.32 1015.40 1015.40 1015.52 1015.64 1015.76 1015.88 1016.12 1016.32 1016.48 1016.68 1016.92 1017.12 1017.24 1017.40 1017.52 1017.72 1017.96 1018.12 1018.24 1018.32 1018.44 1018.52 1018.60 1018.68 1018.80 1018.92 1019.12
1016.64 1016.56 1016.52 1016.48 1016.40 1016.36 1016.28 1016.24 1016.16 1016.12 1016.08 1016.04 1016.00 1015.96 1015.96 1015.92 1015.84 1015.80 1015.76 1015.68 1015.56 1015.48 1015.36 1015.24 1015.12 1015.00 1014.92 1014.84 1014.76 1014.68 1014.68 1014.68 1014.76 1014.84 1014.96 1015.12 1015.20 1015.24 1015.28 1015.36 1015.40 1015.44 1015.48 1015.56 1015.64 1015.76 1015.88 1016.04 1016.24 1016.48 1016.64 1016.76 1017.04 1017.24 1017.36 1017.32 1017.52 1017.76 1018.08 1018.32 1018.40 1018.48 1018.52 1018.60 1018.68 1018.76 1018.88 1019.04 1019.24
1016.68 1016.60 1016.48 1016.40 1016.36 1016.28 1016.24 1016.20 1016.16 1016.12 1016.12 1016.12 1016.08 1016.04 1016.00 1015.96 1015.92 1015.84 1015.76 1015.68 1015.52 1015.40 1015.32 1015.24 1015.12 1015.04 1014.96 1014.88 1014.84 1014.84 1014.84 1014.84 1014.92 1015.00 1015.12 1015.24 1015.28 1015.36 1015.40 1015.48 1015.52 1015.56 1015.68 1015.76 1015.80 1015.96 1016.08 1016.24 1016.40 1016.60 1016.76 1016.96 1017.24 1017.40 1017.44 1017.44 1017.56 1017.84 1018.16 1018.44 1018.60 1018.68 1018.72 1018.76 1018.80 1018.88 1019.00 1019.20 1019.40
1016.68 1016.56 1016.48 1016.40 1016.36 1016.32 1016.24 1016.24 1016.16 1016.12 1016.12 1016.12 1016.12 1016.08 1016.04 1016.00 1015.92 1015.80 1015.72 1015.68 1015.56 1015.48 1015.40 1015.28 1015.20 1015.12 1015.00 1015.00 1015.00 1015.00 1015.00 1015.04 1015.08 1015.16 1015.24 1015.32 1015.36 1015.40 1015.48 1015.56 1015.64 1015.76 1015.84 1015.88 1015.96 1016.08 1016.24 1016.40 1016.52 1016.68 1016.88 1017.12 1017.36 1017.52 1017.56 1017.60 1017.72 1017.96 1018.24 1018.56 1018.76 1018.88 1018.96 1019.04 1019.08 1019.12 1019.20 1019.36 1019.52
1016.64 1016.56 1016.52 1016.44 1016.40 1016.36 1016.28 1016.24 1016.24 1016.20 1016.16 1016.16 1016.12 1016.12 1016.08 1016.00 1015.92 1015.80 1015.76 1015.72 1015.68 1015.60 1015.52 1015.40 1015.32 1015.24 1015.20 1015.20 1015.24 1015.24 1015.24 1015.24 1015.28 1015.36 1015.40 1015.44 1015.52 1015.56 1015.68 1015.72 1015.80 1015.96 1016.04 1016.08 1016.12 1016.24 1016.40 1016.52 1016.68 1016.80 1016.96 1017.20 1017.40 1017.56 1017.68 1017.72 1017.96 1018.24 1018.48 1018.68 1018.88 1019.04 1019.16 1019.24 1019.36 1019.40 1019.40 1019.52 1019.72
1016.68 1016.60 1016.52 1016.48 1016.40 1016.40 1016.36 1016.32 1016.24 1016.24 1016.24 1016.24 1016.20 1016.16 1016.12 1016.00 1015.96 1015.92 1015.88 1015.84 1015.76 1015.68 1015.60 1015.56 1015.44 1015.40 1015.40 1015.44 1015.48 1015.52 1015.48 1015.48 1015.48 1015.52 1015.56 1015.64 1015.68 1015.76 1015.84 1015.96 1016.04 1016.12 1016.24 1016.32 1016.36 1016.44 1016.52 1016.64 1016.84 1017.00 1017.20 1017.36 1017.52 1017.68 1017.80 1017.96 1018.20 1018.48 1018.72 1018.92 1019.04 1019.16 1019.32 1019.48 1019.52 1019.60 1019.68 1019.80 1019.96
1016.80 1016.68 1016.64 1016.56 1016.52 1016.48 1016.40 1016.40 1016.36 1016.36 1016.32 1016.28 1016.24 1016.24 1016.12 1016.04 1016.04 1016.04 1016.00 1015.96 1015.80 1015.80 1015.80 1015.76 1015.68 1015.60 1015.64 1015.68 1015.68 1015.68 1015.68 1015.68 1015.68 1015.72 1015.80 1015.84 1015.92 1016.00 1016.12 1016.16 1016.24 1016.36 1016.44 1016.52 1016.56 1016.64 1016.72 1016.84 1017.08 1017.24 1017.40 1017.56 1017.68 1017.84 1018.04 1018.24 1018.44 1018.68 1018.92 1019.12 1019.24 1019.36 1019.52 1019.68 1019.80 1019.92 1019.96 1020.08 1020.24
1016.84 1016.80 1016.72 1016.68 1016.64 1016.56 1016.52 1016.48 1016.48 1016.40 1016.40 1016.40 1016.32 1016.28 1016.24 1016.24 1016.24 1016.20 1016.12 1016.00 1015.96 1015.96 1016.00 1015.96 1015.84 1015.80 1015.84 1015.84 1015.92 1015.92 1015.92 1015.92 1015.92 1015.96 1016.00 1016.12 1016.20 1016.28 1016.40 1016.48 1016.52 1016.60 1016.64 1016.72 1016.76 1016.80 1016.92 1017.12 1017.28 1017.48 1017.64 1017.80 1017.96 1018.12 1018.28 1018.44 1018.64 1018.88 1019.12 1019.24 1019.40 1019.60 1019.84 1020.00 1020.12 1020.20 1020.24 1020.32 1020.44
1016.96 1016.88 1016.84 1016.80 1016.68 1016.64 1016.60 1016.56 1016.56 1016.52 1016.52 1016.48 1016.44 1016.44 1016.40 1016.40 1016.36 1016.28 1016.20 1016.12 1016.12 1016.12 1016.12 1016.12 1016.04 1016.00 1016.08 1016.12 1016.12 1016.12 1016.12 1016.16 1016.16 1016.24 1016.28 1016.36 1016.44 1016.52 1016.64 1016.72 1016.80 1016.84 1016.88 1016.96 1016.96 1017.00 1017.12 1017.36 1017.52 1017.68 1017.88 1018.12 1018.28 1018.44 1018.52 1018.64 1018.80 1019.00 1019.20 1019.40 1019.60 1019.88 1020.12 1020.28 1020.36 1020.40 1020.44 1020.52 1020.64
1017.04 1016.96 1016.96 1016.92 1016.84 1016.76 1016.68 1016.68 1016.68 1016.64 1016.64 1016.64 1016.60 1016.56 1016.52 1016.52 1016.48 1016.40 1016.40 1016.32 1016.28 1016.32 1016.28 1016.24 1016.24 1016.24 1016.28 1016.32 1016.32 1016.36 1016.40 1016.40 1016.40 1016.48 1016.52 1016.60 1016.68 1016.80 1016.84 1016.96 1017.08 1017.12 1017.16 1017.24 1017.24 1017.32 1017.40 1017.60 1017.72 1017.92 1018.12 1018.40 1018.64 1018.76 1018.84 1018.84 1018.96 1019.12 1019.32 1019.56 1019.80 1020.12 1020.36 1020.48 1020.52 1020.52 1020.52 1020.64 1020.76
1017.12 1017.08 1017.04 1017.00 1016.96 1016.84 1016.84 1016.80 1016.80 1016.80 1016.76 1016.76 1016.72 1016.68 1016.68 1016.64 1016.60 1016.56 1016.52 1016.52 1016.52 1016.48 1016.48 1016.48 1016.52 1016.52 1016.52 1016.52 1016.52 1016.56 1016.60 1016.64 1016.68 1016.72 1016.80 1016.88 1016.96 1017.04 1017.12 1017.24 1017.32 1017.40 1017.44 1017.52 1017.56 1017.68 1017.76 1017.88 1017.96 1018.12 1018.36 1018.60 1018.84 1018.96 1019.04 1019.12 1019.20 1019.40 1019.56 1019.76 1020.00 1020.24 1020.44 1020.56 1020.56 1020.60 1020.68 1020.72 1020.84
1017.20 1017.16 1017.16 1017.12 1017.04 1017.00 1016.96 1016.96 1016.96 1016.92 1016.92 1016.88 1016.84 1016.84 1016.80 1016.80 1016.76 1016.72 1016.72 1016.68 1016.68 1016.68 1016.68 1016.72 1016.72 1016.76 1016.80 1016.80 1016.80 1016.84 1016.84 1016.92 1016.96 1016.96 1017.08 1017.12 1017.24 1017.28 1017.40 1017.48 1017.56 1017.68 1017.72 1017.76 1017.84 1017.96 1018.12 1018.20 1018.32 1018.44 1018.60 1018.80 1018.96 1019.08 1019.16 1019.28 1019.40 1019.56 1019.76 1019.96 1020.12 1020.24 1020.44 1020.60 1020.64 1020.68 1020.76 1020.84 1020.88
1017.28 1017.24 1017.24 1017.24 1017.16 1017.12 1017.12 1017.12 1017.08 1017.04 1017.00 1017.00 1016.96 1016.96 1016.96 1016.96 1016.96 1016.96 1016.96 1016.96 1016.96 1016.92 1016.92 1016.96 1016.96 1017.00 1017.04 1017.04 1017.04 1017.08 1017.12 1017.16 1017.20 1017.24 1017.36 1017.40 1017.48 1017.56 1017.68 1017.80 1017.88 1017.96 1018.00 1018.08 1018.12 1018.24 1018.40 1018.52 1018.64 1018.76 1018.84 1018.96 1019.08 1019.16 1019.28 1019.40 1019.60 1019.76 1019.92 1020.12 1020.24 1020.40 1020.56 1020.68 1020.72 1020.80 1020.84 1020.84 1020.96
1017.36 1017.36 1017.36 1017.32 1017.28 1017.24 1017.24 1017.24 1017.20 1017.20 1017.20 1017.20 1017.20 1017.20 1017.20 1017.20 1017.20 1017.20 1017.20 1017.20 1017.16 1017.16 1017.16 1017.20 1017.24 1017.24 1017.24 1017.28 1017.32 1017.36 1017.40 1017.48 1017.52 1017.56 1017.68 1017.72 1017.80 1017.88 1017.96 1018.08 1018.12 1018.24 1018.28 1018.36 1018.40 1018.52 1018.64 1018.76 1018.84 1018.96 1019.12 1019.24 1019.36 1019.40 1019.48 1019.56 1019.72 1019.92 1020.12 1020.28 1020.44 1020.56 1020.68 1020.76 1020.84 1020.84 1020.88 1020.92 1021.04
1017.44 1017.44 1017.44 1017.40 1017.40 1017.40 1017.36 1017.36 1017.36 1017.40 1017.40 1017.40 1017.36 1017.40 1017.40 1017.40 1017.40 1017.40 1017.40 1017.40 1017.40 1017.40 1017.40 1017.40 1017.44 1017.48 1017.52 1017.52 1017.60 1017.64 1017.68 1017.76 1017.80 1017.88 1017.96 1018.00 1018.08 1018.12 1018.24 1018.32 1018.44 1018.52 1018.56 1018.64 1018.72 1018.84 1018.88 1018.96 1019.12 1019.24 1019.32 1019.52 1019.64 1019.68 1019.72 1019.80 1019.96 1020.16 1020.36 1020.48 1020.60 1020.68 1020.80 1020.84 1020.92 1020.96 1020.96 1021.08 1021.16
1017.48 1017.52 1017.56 1017.56 1017.52 1017.52 1017.48 1017.52 1017.52 1017.52 1017.52 1017.52 1017.52 1017.52 1017.56 1017.56 1017.56 1017.60 1017.64 1017.68 1017.68 1017.68 1017.64 1017.64 1017.68 1017.72 1017.76 1017.80 1017.84 1017.92 1017.96 1018.04 1018.08 1018.12 1018.20 1018.24 1018.32 1018.40 1018.52 1018.56 1018.68 1018.76 1018.84 1018.88 1018.96 1019.08 1019.20 1019.32 1019.40 1019.52 1019.60 1019.72 1019.80 1019.88 1019.96 1020.08 1020.24 1020.40 1020.52 1020.64 1020.76 1020.84 1020.92 1020.96 1021.04 1021.08 1021.12 1021.20 1021.28
1017.56 1017.60 1017.68 1017.68 1017.68 1017.68 1017.68 1017.68 1017.68 1017.68 1017.68 1017.68 1017.68 1017.68 1017.72 1017.76 1017.76 1017.80 1017.84 1017.88 1017.88 1017.88 1017.84 1017.84 1017.88 1017.96 1018.00 1018.04 1018.12 1018.16 1018.24 1018.28 1018.32 1018.40 1018.44 1018.52 1018.56 1018.68 1018.76 1018.84 1018.92 1018.96 1019.08 1019.12 1019.24 1019.32 1019.44 1019.56 1019.68 1019.76 1019.84 1019.96 1020.04 1020.12 1020.20 1020.32 1020.48 1020.64 1020.76 1020.84 1020.96 1021.00 1021.12 1021.16 1021.20 1021.24 1021.28 1021.36 1021.44
1017.68 1017.72 1017.80 1017.80 1017.80 1017.80 1017.80 1017.80 1017.84 1017.84 1017.84 1017.84 1017.84 1017.84 1017.88 1017.92 1017.96 1017.96 1018.00 1018.04 1018.08 1018.08 1018.12 1018.12 1018.12 1018.16 1018.20 1018.24 1018.32 1018.40 1018.44 1018.52 1018.56 1018.60 1018.68 1018.72 1018.84 1018.88 1018.96 1019.04 1019.12 1019.20 1019.28 1019.40 1019.48 1019.52 1019.64 1019.76 1019.84 1019.92 1020.00 1020.08 1020.20 1020.28 1020.40 1020.52 1020.68 1020.80 1020.92 1021.00 1021.12 1021.16 1021.24 1021.32 1021.36 1021.40 1021.48 1021.52 1021.64
1017.80 1017.84 1017.88 1017.96 1017.96 1017.96 1017.96 1017.96 1017.96 1018.00 1018.00 1018.00 1018.00 1018.04 1018.08 1018.12 1018.12 1018.16 1018.16 1018.20 1018.24 1018.24 1018.28 1018.32 1018.36 1018.40 1018.40 1018.44 1018.52 1018.56 1018.64 1018.68 1018.80 1018.84 1018.92 1018.96 1019.04 1019.12 1019.20 1019.24 1019.28 1019.40 1019.48 1019.56 1019.68 1019.72 1019.80 1019.92 1020.00 1020.08 1020.12 1020.24 1020.36 1020.48 1020.60 1020.76 1020.84 1020.96 1021.00 1021.12 1021.24 1021.28 1021.40 1021.48 1021.52 1021.60 1021.68 1021.72 1021.76
1017.88 1017.92 1017.96 1018.00 1018.04 1018.04 1018.04 1018.12 1018.12 1018.16 1018.16 1018.16 1018.16 1018.20 1018.24 1018.24 1018.28 1018.32 1018.36 1018.40 1018.40 1018.48 1018.52 1018.52 1018.60 1018.60 1018.60 1018.64 1018.68 1018.72 1018.80 1018.84 1018.96 1019.08 1019.12 1019.16 1019.24 1019.28 1019.36 1019.44 1019.48 1019.56 1019.64 1019.72 1019.80 1019.84 1019.92 1020.00 1020.12 1020.24 1020.28 1020.40 1020.56 1020.68 1020.80 1020.92 1021.00 1021.12 1021.16 1021.24 1021.36 1021.44 1021.52 1021.64 1021.68 1021.72 1021.76 1021.80 1021.84
1017.96 1018.00 1018.04 1018.12 1018.12 1018.16 1018.20 1018.24 1018.24 1018.28 1018.28 1018.32 1018.32 1018.36 1018.40 1018.40 1018.44 1018.52 1018.52 1018.56 1018.60 1018.68 1018.72 1018.72 1018.76 1018.80 1018.84 1018.84 1018.88 1018.92 1018.96 1019.04 1019.12 1019.24 1019.28 1019.36 1019.40 1019.40 1019.48 1019.52 1019.56 1019.64 1019.68 1019.80 1019.84 1019.92 1020.00 1020.12 1020.24 1020.36 1020.48 1020.60 1020.72 1020.84 1020.96 1021.08 1021.16 1021.24 1021.32 1021.40 1021.48 1021.56 1021.68 1021.80 1021.80 1021.84 1021.88 1021.92 1021.88
1018.04 1018.12 1018.20 1018.24 1018.24 1018.28 1018.32 1018.36 1018.40 1018.40 1018.40 1018.44 1018.44 1018.48 1018.52 1018.56 1018.60 1018.64 1018.68 1018.72 1018.84 1018.88 1018.92 1018.96 1018.96 1019.00 1019.04 1019.04 1019.08 1019.12 1019.16 1019.24 1019.28 1019.36 1019.40 1019.44 1019.52 1019.52 1019.52 1019.56 1019.64 1019.68 1019.72 1019.76 1019.80 1019.96 1020.08 1020.20 1020.36 1020.48 1020.60 1020.76 1020.88 1021.00 1021.12 1021.24 1021.36 1021.40 1021.52 1021.56 1021.64 1021.72 1021.80 1021.92 1021.96 1022.04 1022.08 1022.08 1022.08
1018.12 1018.24 1018.28 1018.32 1018.40 1018.40 1018.44 1018.48 1018.52 1018.52 1018.52 1018.56 1018.60 1018.60 1018.68 1018.68 1018.76 1018.80 1018.84 1018.88 1018.96 1019.04 1019.12 1019.16 1019.20 1019.20 1019.24 1019.24 1019.28 1019.32 1019.40 1019.44 1019.48 1019.52 1019.52 1019.52 1019.56 1019.60 1019.64 1019.68 1019.68 1019.72 1019.76 1019.80 1019.88 1020.00 1020.12 1020.24 1020.44 1020.64 1020.80 1020.92 1021.04 1021.12 1021.28 1021.44 1021.52 1021.64 1021.68 1021.76 1021.80 1021.88 1021.96 1022.08 1022.12 1022.20 1022.24 1022.24 1022.24
1018.24 1018.32 1018.40 1018.44 1018.52 1018.52 1018.60 1018.60 1018.64 1018.68 1018.68 1018.72 1018.76 1018.80 1018.84 1018.84 1018.88 1018.96 1019.00 1019.08 1019.12 1019.24 1019.28 1019.36 1019.40 1019.40 1019.40 1019.44 1019.52 1019.52 1019.56 1019.60 1019.64 1019.68 1019.68 1019.64 1019.68 1019.68 1019.72 1019.76 1019.80 1019.80 1019.88 1019.92 1020.00 1020.12 1020.28 1020.40 1020.60 1020.76 1020.92 1021.08 1021.24 1021.36 1021.48 1021.60 1021.68 1021.80 1021.84 1021.88 1022.00 1022.12 1022.16 1022.24 1022.32 1022.36 1022.40 1022.40 1022.36
1018.40 1018.44 1018.52 1018.52 1018.60 1018.64 1018.68 1018.72 1018.76 1018.80 1018.84 1018.88 1018.92 1018.96 1018.96 1018.96 1019.08 1019.12 1019.16 1019.24 1019.32 1019.40 1019.44 1019.52 1019.56 1019.56 1019.60 1019.64 1019.72 1019.76 1019.76 1019.76 1019.80 1019.76 1019.76 1019.76 1019.80 1019.80 1019.88 1019.88 1019.96 1019.96 1020.00 1020.04 1020.16 1020.28 1020.40 1020.52 1020.68 1020.84 1020.96 1021.16 1021.40 1021.52 1021.60 1021.68 1021.80 1021.88 1021.96 1022.00 1022.12 1022.24 1022.32 1022.40 1022.48 1022.52 1022.52 1022.48 1022.48
1018.48 1018.52 1018.60 1018.68 1018.68 1018.76 1018.84 1018.88 1018.92 1018.96 1019.00 1019.08 1019.12 1019.12 1019.12 1019.16 1019.24 1019.28 1019.36 1019.44 1019.48 1019.52 1019.60 1019.68 1019.68 1019.72 1019.80 1019.80 1019.80 1019.84 1019.84 1019.88 1019.88 1019.88 1019.92 1019.92 1019.96 1020.00 1020.04 1020.12 1020.12 1020.16 1020.20 1020.24 1020.32 1020.44 1020.56 1020.68 1020.80 1020.92 1021.12 1021.32 1021.48 1021.64 1021.76 1021.88 1021.96 1022.00 1022.12 1022.20 1022.28 1022.40 1022.44 1022.52 1022.52 1022.56 1022.60 1022.60 1022.60
1018.56 1018.64 1018.72 1018.80 1018.84 1018.88 1018.96 1019.00 1019.08 1019.12 1019.20 1019.24 1019.32 1019.28 1019.28 1019.32 1019.40 1019.44 1019.52 1019.60 1019.68 1019.68 1019.72 1019.76 1019.80 1019.84 1019.88 1019.96 1019.92 1019.92 1019.96 1019.96 1020.00 1020.04 1020.08 1020.12 1020.12 1020.16 1020.24 1020.24 1020.24 1020.32 1020.36 1020.40 1020.52 1020.60 1020.72 1020.84 1020.92 1021.08 1021.24 1021.44 1021.64 1021.80 1021.92 1022.00 1022.04 1022.12 1022.24 1022.36 1022.44 1022.52 1022.52 1022.60 1022.64 1022.68 1022.68 1022.68 1022.68
1018.68 1018.76 1018.84 1018.92 1018.96 1019.08 1019.12 1019.20 1019.24 1019.32 1019.40 1019.44 1019.44 1019.40 1019.40 1019.48 1019.52 1019.64 1019.68 1019.72 1019.80 1019.84 1019.84 1019.88 1019.92 1019.96 1019.96 1020.00 1020.04 1020.08 1020.12 1020.16 1020.20 1020.24 1020.28 1020.28 1020.32 1020.36 1020.40 1020.40 1020.48 1020.52 1020.52 1020.56 1020.68 1020.80 1020.88 1020.96 1021.12 1021.24 1021.40 1021.56 1021.76 1021.92 1022.00 1022.12 1022.20 1022.28 1022.40 1022.52 1022.56 1022.64 1022.68 1022.72 1022.76 1022.76 1022.80 1022.84 1022.84
1018.84 1018.88 1018.96 1019.04 1019.12 1019.20 1019.24 1019.36 1019.40 1019.48 1019.52 1019.52 1019.52 1019.56 1019.60 1019.64 1019.68 1019.76 1019.84 1019.88 1019.96 1019.96 1019.96 1019.96 1020.00 1020.04 1020.12 1020.12 1020.24 1020.24 1020.32 1020.36 1020.40 1020.40 1020.48 1020.48 1020.52 1020.56 1020.60 1020.64 1020.64 1020.68 1020.68 1020.72 1020.84 1020.96 1021.04 1021.12 1021.24 1021.36 1021.48 1021.64 1021.80 1021.96 1022.12 1022.20 1022.32 1022.44 1022.60 1022.68 1022.76 1022.80 1022.80 1022.84 1022.84 1022.88 1022.92 1022.96 1022.96
1018.96 1019.00 1019.08 1019.16 1019.24 1019.32 1019.40 1019.44 1019.52 1019.60 1019.68 1019.68 1019.68 1019.72 1019.72 1019.72 1019.80 1019.88 1019.96 1020.00 1020.04 1020.04 1020.08 1020.08 1020.12 1020.16 1020.24 1020.28 1020.40 1020.44 1020.48 1020.56 1020.56 1020.60 1020.64 1020.64 1020.68 1020.72 1020.80 1020.80 1020.80 1020.84 1020.84 1020.92 1021.00 1021.12 1021.16 1021.24 1021.32 1021.40 1021.56 1021.68 1021.92 1022.08 1022.20 1022.36 1022.48 1022.64 1022.80 1022.88 1022.92 1022.96 1022.96 1022.96 1023.00 1023.04 1023.08 1023.08 1023.12
1019.04 1019.12 1019.16 1019.24 1019.36 1019.40 1019.52 1019.56 1019.64 1019.68 1019.72 1019.80 1019.80 1019.80 1019.84 1019.88 1019.92 1019.96 1020.04 1020.08 1020.12 1020.20 1020.24 1020.24 1020.28 1020.36 1020.40 1020.48 1020.52 1020.60 1020.64 1020.72 1020.76 1020.76 1020.80 1020.80 1020.84 1020.88 1020.92 1020.96 1020.96 1020.96 1021.00 1021.12 1021.16 1021.24 1021.28 1021.36 1021.44 1021.56 1021.68 1021.88 1022.12 1022.24 1022.40 1022.52 1022.68 1022.84 1022.96 1023.00 1023.08 1023.12 1023.12 1023.16 1023.20 1023.24 1023.24 1023.24 1023.28
1019.12 1019.20 1019.24 1019.40 1019.48 1019.52 1019.56 1019.64 1019.68 1019.72 1019.80 1019.80 1019.88 1019.92 1019.96 1019.96 1020.04 1020.12 1020.12 1020.16 1020.24 1020.32 1020.40 1020.44 1020.48 1020.52 1020.56 1020.64 1020.72 1020.80 1020.84 1020.88 1020.92 1020.96 1020.96 1020.96 1021.00 1021.04 1021.08 1021.12 1021.12 1021.16 1021.20 1021.24 1021.28 1021.36 1021.44 1021.52 1021.64 1021.76 1021.96 1022.12 1022.32 1022.44 1022.56 1022.72 1022.92 1023.00 1023.12 1023.16 1023.24 1023.32 1023.36 1023.36 1023.40 1023.40 1023.40 1023.44 1023.44
1019.24 1019.28 1019.40 1019.48 1019.52 1019.60 1019.64 1019.68 1019.68 1019.76 1019.84 1019.88 1019.96 1019.96 1020.04 1020.08 1020.16 1020.24 1020.24 1020.28 1020.40 1020.48 1020.52 1020.60 1020.68 1020.72 1020.80 1020.88 1020.96 1021.00 1021.08 1021.08 1021.08 1021.12 1021.12 1021.16 1021.20 1021.24 1021.24 1021.24 1021.32 1021.36 1021.40 1021.40 1021.48 1021.52 1021.60 1021.72 1021.84 1022.00 1022.16 1022.36 1022.52 1022.68 1022.80 1022.96 1023.08 1023.16 1023.24 1023.36 1023.44 1023.52 1023.52 1023.52 1023.52 1023.52 1023.52 1023.52 1023.48
1019.32 1019.40 1019.44 1019.52 1019.56 1019.64 1019.68 1019.68 1019.76 1019.80 1019.88 1019.96 1020.00 1020.08 1020.12 1020.12 1020.24 1020.36 1020.40 1020.40 1020.52 1020.60 1020.68 1020.80 1020.88 1020.96 1021.00 1021.04 1021.12 1021.16 1021.20 1021.24 1021.24 1021.24 1021.28 1021.32 1021.36 1021.40 1021.40 1021.44 1021.52 1021.52 1021.56 1021.56 1021.68 1021.72 1021.80 1021.96 1022.04 1022.20 1022.36 1022.52 1022.68 1022.84 1022.96 1023.12 1023.24 1023.36 1023.44 1023.52 1023.56 1023.64 1023.68 1023.68 1023.68 1023.68 1023.64 1023.56 1023.36
1019.40 1019.48 1019.52 1019.56 1019.64 1019.68 1019.68 1019.76 1019.80 1019.84 1019.92 1019.96 1020.08 1020.16 1020.20 1020.28 1020.36 1020.44 1020.52 1020.56 1020.64 1020.72 1020.84 1020.96 1021.04 1021.12 1021.12 1021.16 1021.24 1021.28 1021.36 1021.40 1021.40 1021.40 1021.44 1021.48 1021.52 1021.52 1021.56 1021.60 1021.68 1021.72 1021.76 1021.76 1021.84 1021.92 1022.00 1022.12 1022.24 1022.40 1022.52 1022.72 1022.88 1023.00 1023.12 1023.28 1023.40 1023.52 1023.64 1023.68 1023.72 1023.76 1023.76 1023.76 1023.80 1023.76 1023.72 1023.64 1023.40
1019.44 1019.52 1019.56 1019.64 1019.68 1019.72 1019.80 1019.84 1019.88 1019.96 1019.96 1020.08 1020.12 1020.24 1020.32 1020.40 1020.52 1020.56 1020.68 1020.72 1020.80 1020.84 1020.96 1021.08 1021.16 1021.24 1021.24 1021.32 1021.40 1021.48 1021.52 1021.56 1021.60 1021.60 1021.60 1021.64 1021.68 1021.72 1021.76 1021.80 1021.88 1021.92 1021.92 1021.96 1022.00 1022.08 1022.12 1022.24 1022.40 1022.52 1022.76 1023.00 1023.12 1023.24 1023.32 1023.44 1023.56 1023.76 1023.88 1023.92 1023.92 1023.92 1023.92 1023.88 1023.88 1023.84 1023.80 1023.76 1023.64
1019.52 1019.56 1019.64 1019.68 1019.72 1019.80 1019.84 1019.92 1019.96 1020.04 1020.12 1020.16 1020.24 1020.36 1020.44 1020.52 1020.64 1020.72 1020.80 1020.88 1020.92 1021.00 1021.12 1021.24 1021.28 1021.36 1021.40 1021.48 1021.52 1021.64 1021.68 1021.80 1021.80 1021.80 1021.84 1021.88 1021.92 1021.96 1022.04 1022.12 1022.16 1022.20 1022.20 1022.12 1022.12 1022.20 1022.28 1022.40 1022.52 1022.72 1022.96 1023.20 1023.28 1023.36 1023.44 1023.56 1023.72 1023.92 1024.08 1024.12 1024.12 1024.12 1024.12 1024.08 1023.96 1023.92 1023.88 1023.88 1023.84
Wind_Speed
2 1 1 1 1 1 2 2 2 2 2 2 2 2 2 2 3 3 3 3 3 4 4 4 4 4 4 4 5 6 7 7 7 7 8 8 8 8 8 7 7 6 6 6 5 5 4 5 5 4 4 4 4 4 4 4 5 5 5 5 4 5 6 7 6 6 6 6 4
2 2 2 2 2 2 2 2 2 2 2 2 2 2 3 3 3 3 3 4 4 4 4 4 4 4 4 5 6 6 7 7 7 7 8 8 8 7 7 6 6 6 6 6 6 5 5 6 6 5 4 4 4 4 4 3 4 5 5 5 4 4 4 5 5 4 4 4 3
2 2 1 1 1 1 2 2 2 2 2 2 2 2 3 3 3 4 4 4 4 4 4 4 4 4 4 5 5 5 6 6 6 6 6 6 5 5 5 5 5 5 6 6 6 6 6 7 6 5 4 4 4 4 3 3 3 4 4 3 2 2 2 2 2 2 2 2 2
3 2 2 2 2 2 2 2 3 3 3 3 2 2 2 3 3 3 3 3 3 3 3 4 4 4 4 4 4 4 3 3 4 4 4 3 2 3 3 4 5 5 5 5 6 6 6 6 5 4 4 5 5 5 4 3 3 3 3 2 2 2 2 2 2 2 2 3 3
4 3 2 2 3 3 3 3 3 3 3 2 2 2 2 2 2 2 2 3 3 3 3 3 4 4 4 3 3 2 1 1 2 2 2 3 3 3 3 4 4 4 4 5 5 5 5 5 3 3 3 4 4 4 4 5 5 4 3 2 2 2 3 2 2 2 3 3 3
5 4 3 3 3 3 3 2 3 3 2 2 1 2 2 2 2 2 2 2 3 4 4 4 4 4 3 2 1 2 3 4 4 4 5 5 4 4 5 5 5 4 4 4 5 5 5 4 3 3 3 4 3 3 4 6 6 5 4 3 2 2 2 3 2 3 3 4 4
4 4 4 4 3 3 2 2 2 2 1 1 1 1 2 2 2 2 2 2 3 3 3 3 3 3 2 1 2 3 4 4 5 5 5 5 5 5 5 6 6 6 5 5 5 5 5 5 4 4 4 4 4 4 5 6 6 6 5 4 3 2 3 3 2 3 4 6 6
4 3 3 3 3 3 2 2 1 1 1 1 2 2 2 2 2 2 3 3 3 3 3 3 3 3 3 4 4 4 4 5 5 5 5 5 5 6 6 6 6 6 6 6 6 6 5 5 4 4 4 4 4 4 5 7 8 7 6 5 3 3 3 3 3 3 5 7 7
3 3 3 3 2 2 1 1 1 2 3 3 3 2 2 2 3 3 4 3 3 3 3 4 4 5 6 6 5 5 5 5 5 5 5 5 6 6 6 6 6 6 6 5 6 7 6 5 4 4 4 4 4 5 6 8 9 8 7 5 4 4 4 4 4 4 5 7 7
4 3 3 3 2 2 2 2 3 3 4 4 3 3 3 4 4 4 3 2 3 4 4 4 5 6 7 7 6 5 5 5 5 6 6 6 7 7 6 6 6 6 6 6 6 7 7 6 6 5 5 5 6 7 8 8 9 8 6 4 4 5 5 5 5 5 6 6 7
3 3 3 3 2 3 3 3 4 4 4 4 4 4 5 6 5 4 3 2 4 5 6 5 6 6 7 6 6 6 5 5 6 6 7 7 7 7 7 7 7 7 7 6 6 6 6 6 7 7 7 7 7 8 8 8 8 8 6 5 6 7 6 6 5 5 5 6 7
3 3 3 3 3 3 4 4 4 4 4 5 5 5 6 6 5 4 4 4 6 6 6 5 6 7 6 6 6 6 6 6 7 7 7 8 8 8 8 7 7 7 7 6 6 6 6 7 8 9 9 8 6 6 7 8 8 8 8 7 7 7 6 5 5 4 5 6 6
3 3 3 3 3 4 4 4 4 4 5 5 5 5 5 5 5 5 5 6 6 6 6 6 7 7 6 6 6 6 6 6 7 7 7 8 8 8 8 8 7 7 7 6 6 6 7 8 9 9 9 8 6 6 6 8 8 9 8 8 8 7 6 5 5 5 5 6 6
4 3 3 3 4 4 4 4 4 4 5 6 5 5 5 5 5 5 5 6 6 6 6 6 6 6 6 6 6 6 7 7 7 8 8 8 8 8 8 8 8 7 7 6 7 7 8 8 9 10 10 9 7 7 7 7 8 8 9 9 8 7 6 5 5 5 6 7 7
4 4 4 4 4 4 4 4 4 4 5 5 5 5 5 5 5 5 5 6 6 6 6 6 6 6 7 7 7 7 7 7 8 8 8 9 9 9 9 8 8 8 8 7 8 8 9 9 9 10 10 9 9 8 8 8 8 8 8 8 8 7 6 5 5 6 6 7 7
4 4 4 4 4 5 5 4 4 4 4 5 5 5 5 5 5 6 6 6 5 5 6 6 6 6 7 8 8 8 8 8 8 8 9 9 9 9 9 9 9 9 9 9 9 9 9 9 9 9 10 10 9 9 9 9 9 9 8 8 7 7 7 6 6 6 6 7 7
5 5 4 4 5 5 5 4 4 4 5 6 6 6 5 5 5 6 6 6 6 6 7 7 7 6 7 7 7 8 8 8 8 8 8 9 9 9 9 9 9 9 9 9 10 10 9 9 9 9 9 9 9 9 9 9 9 8 8 7 7 7 7 7 6 6 6 7 7
5 5 5 4 5 5 5 5 5 5 6 6 6 6 6 6 6 6 7 7 7 7 8 8 7 7 8 8 7 7 7 8 8 8 9 9 9 9 10 10 9 9 9 9 10 10 10 9 9 9 9 8 8 9 9 9 9 8 8 8 7 7 7 6 6 6 6 7 7
5 5 5 4 5 6 6 6 6 6 6 6 6 7 7 7 7 7 7 8 8 8 8 8 8 8 8 9 8 8 8 8 9 9 9 9 9 10 10 10 9 9 9 9 9 10 9 9 9 9 9 8 8 8 8 9 9 8 8 8 7 7 7 6 6 6 6 6 6
5 5 5 5 6 6 6 6 6 6 6 6 7 7 8 8 8 8 8 8 8 8 8 8 8 8 8 9 9 8 8 7 8 9 9 9 9 9 10 9 9 9 9 9 9 9 9 9 9 9 8 8 8 9 9 9 9 8 8 7 7 7 7 6 6 6 5 5 5
5 5 5 5 5 5 6 6 6 6 6 7 7 8 8 8 8 8 8 8 8 8 8 9 9 9 8 8 9 8 8 7 8 8 9 9 9 9 9 9 9 9 9 9 9 9 9 8 8 8 8 8 9 9 9 8 8 8 7 7 7 7 6 6 6 6 5 5 5
5 5 5 5 5 5 5 6 6 6 7 7 7 7 8 8 8 8 8 8 8 8 8 8 8 8 8 8 8 8 8 7 8 8 8 8 8 8 8 8 9 9 9 9 8 8 8 8 8 8 8 8 8 8 8 8 8 8 7 7 7 7 7 6 6 6 5 5 5
5 5 4 4 4 5 6 6 6 6 6 6 7 7 7 7 7 7 7 7 8 8 8 7 8 8 8 8 8 8 8 8 8 8 8 8 8 8 8 8 8 8 8 7 7 7 7 7 8 8 7 7 8 8 8 7 7 7 7 8 8 8 7 7 6 6 5 5 5
5 4 4 4 5 5 6 6 6 6 6 6 6 7 7 7 7 7 7 8 8 8 7 7 7 7 8 8 8 8 8 9 9 8 8 8 8 8 8 7 7 7 6 6 6 6 7 6 6 6 7 7 7 6 6 6 6 7 7 8 8 8 7 7 7 6 6 5 4
5 5 5 5 5 5 5 6 6 6 6 6 6 7 7 7 7 7 8 8 8 8 8 8 7 7 7 7 8 8 8 8 8 8 8 8 7 7 6 6 6 5 5 6 9 10 10 8 7 6 5 6 6 6 6 6 6 6 6 7 7 8 7 8 7 7 6 6 5
5 5 5 5 5 5 5 6 6 6 6 6 6 7 7 7 7 7 8 8 8 8 8 7 7 7 7 7 7 7 7 7 7 7 7 7 6 6 6 5 4 4 5 8 11 12 12 12 10 8 6 5 5 6 6 6 6 7 7 7 7 7 7 7 7 7 6 6 6
5 5 5 5 5 5 5 5 5 5 6 6 6 6 6 6 6 7 8 8 8 7 7 7 6 6 6 6 7 7 7 6 6 6 6 6 6 6 5 4 4 4 6 10 12 13 13 13 13 11 8 6 5 5 6 6 7 7 7 7 7 7 7 7 6 6 6 5 6
5 5 5 5 5 5 5 5 5 5 6 6 6 6 6 7 7 7 7 7 7 7 6 5 5 5 5 5 7 7 7 6 5 5 5 5 5 5 5 4 4 6 8 12 13 13 13 14 14 13 11 8 6 6 6 6 6 6 6 6 6 6 6 5 5 5 5 5 5
5 5 5 5 5 5 5 5 5 5 6 6 6 6 7 7 7 7 7 7 6 6 5 4 4 4 5 6 6 6 5 4 4 4 4 5 6 6 6 6 6 8 11 14 14 14 14 14 14 14 13 10 7 5 5 5 5 5 5 5 5 5 5 4 4 4 4 4 4
5 5 5 5 5 5 5 5 5 5 5 5 6 6 7 7 7 7 7 7 6 6 5 4 5 5 5 5 4 4 4 3 4 5 6 7 7 7 7 6 6 8 11 14 14 14 14 14 14 14 13 12 9 6 5 5 5 5 5 5 5 5 4 4 4 4 4 4 4
5 5 5 5 5 5 5 6 6 6 5 5 5 5 6 7 7 7 7 6 6 6 6 6 6 6 5 4 4 4 5 6 6 6 7 7 8 8 7 7 7 8 11 14 14 14 14 14 14 14 14 13 10 7 5 5 5 5 5 5 4 4 4 4 4 4 4 4 4
5 5 6 6 6 6 6 6 6 5 5 5 5 6 6 7 7 6 6 6 6 6 6 6 6 6 6 6 6 7 7 7 7 7 7 7 7 7 7 7 7 8 11 14 14 14 14 14 14 14 14 13 10 8 6 6 5 5 5 5 4 4 4 3 4 4 4 4 4
5 6 6 6 6 6 6 6 5 5 5 4 5 6 7 7 6 6 6 5 5 5 5 6 6 7 7 7 7 8 8 7 7 7 8 7 7 7 7 6 6 8 11 14 14 14 14 14 15 15 15 14 10 8 6 6 5 5 5 5 4 4 4 4 4 4 4 4 4
6 6 6 6 6 6 6 5 5 5 4 5 5 6 6 6 6 6 5 4 4 4 4 5 6 6 7 7 7 7 7 7 7 7 7 7 7 7 6 5 5 8 12 14 14 14 14 14 14 15 14 13 9 7 6 6 5 5 5 5 5 5 5 5 5 4 4 3 3
5 6 6 6 5 5 5 5 5 5 5 5 6 6 6 6 6 5 5 5 5 5 5 5 6 6 7 7 7 7 7 7 7 7 7 7 8 8 8 6 7 9 12 13 13 13 13 13 14 14 13 10 7 6 6 6 6 5 5 5 5 6 6 5 5 4 3 3 2
5 6 6 5 5 5 5 5 5 5 5 6 6 6 5 5 5 4 5 6 6 6 6 5 6 6 7 7 7 7 7 7 7 7 7 7 7 8 8 8 8 10 12 12 12 12 12 12 13 13 11 8 6 5 5 5 5 5 5 5 5 5 5 5 4 4 3 3 2
5 5 5 5 5 5 5 5 5 6 6 6 5 5 5 5 5 5 5 6 6 6 6 6 6 7 7 7 7 7 7 6 7 7 7 7 7 7 8 8 7 8 10 11 11 11 11 11 12 11 10 6 5 5 5 4 4 4 5 5 4 4 4 4 4 4 4 3 1
5 5 5 5 5 5 5 5 6 6 6 5 5 5 5 5 5 5 5 5 6 6 6 6 6 7 7 8 8 7 7 7 7 7 8 8 7 7 7 7 6 6 8 10 10 10 10 11 11 10 8 5 5 4 4 4 4 4 4 4 3 3 3 3 3 4 4 4 3
5 5 5 5 5 5 5 5 5 6 6 5 5 5 5 5 5 5 5 5 6 6 6 6 6 7 7 8 8 8 8 7 7 7 7 7 7 7 7 6 5 5 7 9 9 9 9 10 10 10 8 6 4 4 4 3 3 3 3 3 3 3 4 3 3 3 4 4 7
5 5 5 4 5 5 5 5 5 5 5 5 6 6 6 5 5 5 5 5 6 6 6 6 7 7 7 8 8 7 7 7 7 7 7 7 7 7 7 5 5 5 6 8 8 9 9 9 10 10 8 6 4 3 3 4 4 3 3 3 3 3 3 4 3 3 4 4 6
4 4 5 4 4 5 5 5 5 5 5 6 6 6 6 5 5 5 5 5 6 6 6 6 7 7 7 7 7 7 7 7 6 6 6 7 7 7 6 5 5 4 4 5 7 8 9 9 10 9 8 5 4 3 3 3 4 3 3 2 2 2 2 3 3 3 4 4 4
Wind_Direction
329 316 299 286 278 273 269 267 262 257 253 248 253 253 251 245 249 251 249 241 240 240 240 237 233 235 237 237 234 236 239 240 232 224 217 211 208 203 197 190 181 174 168 163 159 157 158 159 158 161 167 173 179 183 186 185 181 181 184 191 192 191 190 191 194 192 189 184 180
318 303 289 282 280 280 278 280 275 268 259 248 249 252 254 252 253 255 254 247 245 246 249 252 247 244 242 240 234 232 232 233 227 221 216 212 207 199 188 178 170 164 160 157 154 152 151 150 149 151 156 163 166 169 172 176 170 170 175 187 190 190 189 193 192 187 181 176 165
309 301 289 281 282 282 281 282 280 274 265 257 252 252 254 254 255 256 256 255 254 254 256 259 259 255 251 248 240 231 227 227 222 219 215 211 200 186 173 164 160 158 156 155 155 155 154 153 152 151 153 158 155 151 148 157 152 151 153 157 149 148 149 148 132 123 116 105 90
312 305 297 286 277 269 266 269 274 273 270 265 260 254 252 253 257 261 267 273 274 269 265 264 271 274 272 265 251 237 224 218 213 207 200 184 158 145 142 142 146 149 151 151 153 155 155 155 153 152 150 150 145 144 144 144 126 115 105 96 91 96 101 98 90 86 83 76 70
314 308 299 286 275 264 256 252 260 267 273 278 279 275 267 263 268 277 286 293 288 284 282 284 286 288 286 275 251 221 157 111 123 128 123 107 96 93 99 109 120 128 133 137 142 143 142 139 132 127 128 129 129 135 137 133 117 105 92 80 83 93 100 100 91 86 83 80 72
310 306 300 290 280 270 260 251 253 260 271 286 293 298 298 300 301 302 299 293 288 289 293 296 293 291 287 266 184 113 92 80 81 86 91 92 86 82 81 83 86 92 98 106 109 109 108 107 101 93 91 94 97 105 115 117 110 103 94 80 70 74 85 89 85 82 83 82 78
297 298 298 294 289 284 279 274 269 272 279 298 322 328 324 322 326 325 320 313 316 318 320 321 320 320 325 38 81 83 81 78 76 78 83 91 89 86 83 81 80 83 88 94 94 93 91 92 94 93 91 92 95 94 93 99 102 101 96 84 65 56 59 67 71 79 84 86 82
292 292 293 294 295 295 298 302 317 349 16 29 23 6 348 340 359 6 7 4 4 359 356 357 0 9 26 49 58 65 72 78 77 76 77 86 86 86 85 84 83 84 86 92 95 95 94 91 94 96 97 98 99 95 91 92 96 97 96 90 75 59 51 53 59 72 81 84 80
307 306 308 311 318 323 333 0 40 53 53 46 35 21 9 15 31 32 29 23 16 13 14 17 25 36 46 50 50 54 62 75 79 77 75 78 81 82 83 83 84 83 84 86 92 96 97 96 95 96 98 102 102 97 92 90 92 93 93 92 84 70 58 54 58 67 75 79 78
322 327 334 347 0 14 35 52 56 58 57 50 40 32 31 36 37 36 32 29 31 33 32 30 39 48 53 52 51 52 57 68 76 77 76 75 77 80 82 84 87 87 87 86 91 94 96 97 95 94 94 96 96 94 91 90 91 91 91 89 85 76 68 60 63 67 73 78 80
335 346 0 16 26 40 51 56 55 54 54 51 45 40 39 39 36 32 31 38 48 45 41 36 46 53 57 57 56 57 60 65 73 77 78 77 78 80 81 84 87 89 89 89 91 94 95 96 97 95 93 91 91 92 92 93 93 93 91 86 82 77 72 65 67 71 77 84 86
359 9 20 29 36 46 53 57 55 53 52 50 47 44 43 40 34 33 39 50 55 53 47 43 50 56 60 61 61 63 65 69 74 78 80 80 80 81 81 82 83 85 85 86 90 93 96 98 100 98 95 90 90 94 98 100 99 97 94 88 83 80 77 73 74 79 85 90 91
20 26 30 32 39 48 54 56 55 53 50 49 47 46 45 41 36 38 46 54 57 56 52 48 52 56 59 61 64 66 68 70 74 77 80 81 81 80 80 78 78 78 78 79 83 90 96 100 101 99 96 91 90 94 99 103 103 102 99 94 90 89 90 90 92 94 95 95 95
32 33 33 35 42 49 54 54 53 52 49 47 44 44 45 43 39 41 46 53 55 55 54 52 52 53 54 57 63 67 69 72 74 76 77 78 77 77 76 75 73 73 73 73 77 84 91 97 99 98 97 95 93 93 95 98 101 102 102 101 102 104 107 109 109 107 104 102 101
40 38 37 40 45 49 52 52 51 50 47 44 40 40 43 45 41 42 45 51 52 54 55 55 54 53 53 55 60 64 67 70 73 74 75 74 74 74 74 73 71 71 72 74 74 78 83 89 94 97 99 101 100 98 96 96 98 101 105 109 113 116 118 120 116 113 111 110 108
48 44 42 45 48 51 51 50 50 49 48 46 40 40 41 44 42 42 43 46 50 53 56 57 57 55 53 54 57 61 64 66 69 70 71 72 72 72 73 73 72 72 74 76 77 78 79 83 89 94 98 102 102 102 100 100 102 104 107 111 115 118 120 121 117 115 113 112 111
56 51 47 46 50 52 52 48 47 49 51 51 46 44 43 43 45 45 45 45 49 54 57 57 57 57 55 54 55 58 61 63 64 66 68 69 70 71 72 72 73 74 76 79 82 83 83 84 86 89 93 97 99 100 101 102 103 104 105 107 109 112 115 116 114 113 111 109 110
62 55 48 43 48 52 53 53 50 51 52 53 52 49 47 46 49 50 50 49 53 58 61 61 60 59 59 59 57 58 60 62 64 65 67 69 70 71 72 73 74 76 78 81 84 85 86 87 87 88 89 91 94 96 98 99 100 100 101 102 104 105 107 108 107 107 108 110 113
66 58 50 45 50 55 57 59 58 57 57 58 58 57 56 54 55 56 55 53 55 60 64 66 64 62 62 62 62 62 63 65 67 69 70 71 72 73 74 75 76 76 78 80 81 83 84 85 87 89 91 93 93 94 95 95 97 98 100 101 101 101 101 100 101 103 106 111 114
69 62 56 53 56 59 61 63 63 64 65 66 65 65 64 62 62 62 61 59 58 61 65 68 67 66 65 65 66 65 65 66 69 71 72 73 74 76 77 78 78 78 78 79 80 81 83 85 87 90 93 96 96 95 95 95 96 98 99 99 98 97 97 97 97 99 101 105 108
72 69 66 62 63 64 66 66 68 69 70 72 72 71 71 69 68 68 67 66 64 64 66 68 69 69 69 68 68 68 67 68 69 71 73 74 75 77 79 81 81 81 80 80 82 84 87 89 91 93 95 96 96 96 96 97 98 99 98 97 96 94 93 92 92 91 91 92 93
77 75 72 70 70 70 70 71 72 73 73 74 74 74 74 72 72 72 71 70 68 67 67 68 69 70 71 71 72 72 70 70 70 71 73 75 76 78 80 82 83 84 85 85 87 89 90 92 93 94 94 95 95 97 98 100 102 102 100 98 96 92 88 84 81 79 78 77 79
83 80 77 74 74 75 76 77 76 76 75 74 75 75 74 73 71 71 70 70 68 67 66 67 69 70 72 75 76 77 76 74 73 73 74 77 79 80 81 83 84 85 87 89 89 91 92 92 92 92 93 94 96 98 100 103 105 104 102 100 95 90 85 80 78 76 74 74 77
85 83 81 79 79 79 81 82 81 80 79 78 77 77 76 75 73 71 70 70 69 68 67 68 68 70 72 75 77 79 80 80 78 77 77 80 83 85 87 88 89 92 94 96 97 97 96 95 94 93 93 94 96 97 98 100 101 101 100 98 94 90 84 79 76 74 73 73 77
86 84 83 81 81 82 83 84 84 83 82 82 81 80 79 78 76 75 73 72 70 69 69 69 69 69 70 72 75 77 79 82 83 84 85 86 89 92 94 95 98 102 106 107 107 105 104 103 102 99 97 96 96 94 91 89 90 91 93 94 93 90 85 78 71 66 63 60 59
90 88 85 84 84 84 84 85 84 84 83 83 82 81 81 80 79 78 77 75 72 70 69 68 68 69 70 71 73 75 77 80 84 88 91 93 94 94 94 96 99 103 106 109 108 107 106 105 104 101 96 93 94 92 89 84 81 82 84 85 87 87 85 80 72 66 60 56 53
96 94 92 90 87 85 84 83 84 84 83 83 82 82 82 81 81 80 79 77 75 73 70 67 68 70 71 72 73 75 76 78 82 87 91 94 94 93 92 94 95 98 102 105 104 103 103 103 101 98 93 84 85 87 87 86 83 82 81 80 81 81 82 81 78 73 68 62 58
103 103 101 98 94 90 87 84 83 83 83 82 83 83 83 82 81 80 80 80 79 77 74 72 71 71 72 73 75 77 80 83 85 87 88 87 85 85 86 86 88 95 100 101 100 99 99 100 100 98 94 88 84 85 88 89 87 85 82 81 79 78 77 78 79 78 75 69 64
110 110 108 104 101 97 93 88 86 85 84 83 84 85 84 82 81 80 80 81 80 80 80 80 80 79 80 81 85 87 88 86 84 82 78 77 76 77 78 80 85 92 96 98 97 97 98 99 99 98 96 93 89 86 86 87 86 85 83 81 79 79 79 80 82 82 80 77 72
112 112 110 106 102 98 94 90 88 86 85 84 85 86 87 86 84 83 82 81 81 82 85 90 91 91 92 95 96 94 88 79 73 74 76 78 79 78 79 81 84 90 94 95 94 94 94 94 95 95 95 93 89 86 84 84 84 84 84 84 85 87 89 91 91 88 84 80 75
110 108 105 102 98 95 92 90 88 87 87 88 90 91 91 91 89 88 87 87 88 91 94 96 97 97 97 95 87 81 78 75 74 74 75 77 78 78 78 79 81 86 90 92 91 91 91 91 91 92 93 93 91 89 87 87 86 86 87 89 91 94 95 95 89 83 78 74 71
107 104 102 99 97 95 95 95 94 95 96 99 100 98 97 95 94 93 93 95 98 100 101 100 99 96 91 84 80 78 77 76 75 74 74 73 73 74 73 73 75 82 86 88 89 89 90 91 92 94 96 97 96 95 92 91 89 87 86 86 86 86 85 83 77 71 66 64 65
107 106 104 104 104 104 103 103 103 103 103 103 103 102 100 99 97 97 97 99 102 103 102 100 97 94 90 87 84 82 80 78 77 76 75 74 72 71 70 69 74 81 84 86 87 88 90 92 95 98 100 101 99 97 94 92 89 85 82 77 73 69 67 66 65 63 62 61 64
112 111 111 111 112 113 113 111 109 107 105 103 102 102 101 101 101 101 102 103 99 95 93 92 92 91 90 89 88 86 83 81 79 77 76 75 74 72 70 67 74 79 82 83 85 87 90 93 97 100 101 100 96 93 91 90 88 84 79 72 65 59 55 54 53 54 55 60 67
117 116 115 115 117 118 118 117 115 113 110 108 105 104 102 101 102 103 102 99 93 88 84 84 87 88 88 86 85 84 83 82 78 76 75 75 75 75 73 70 74 78 80 81 84 86 90 94 97 99 98 95 91 88 88 88 86 82 77 71 61 53 47 44 39 37 36 43 58
119 117 116 115 117 119 121 121 120 117 115 112 110 107 104 101 99 97 97 97 93 90 87 85 86 86 85 83 80 79 79 79 78 75 73 72 72 73 73 70 72 75 78 81 83 87 91 95 98 97 95 89 83 81 83 83 81 76 70 64 55 46 38 34 27 22 19 19 38
115 116 117 119 121 123 124 123 121 119 117 114 113 110 106 102 96 94 95 98 96 94 91 87 85 84 83 83 80 77 75 75 76 75 74 71 71 72 72 69 68 72 76 81 84 88 93 97 98 96 92 84 80 79 79 77 73 68 62 57 48 38 28 24 19 16 11 3 17
114 118 122 126 127 127 126 124 121 119 118 116 112 108 105 102 98 97 98 100 99 98 95 90 87 87 86 85 82 77 73 71 73 75 76 75 73 73 73 71 68 70 76 81 86 90 95 100 101 99 95 86 84 83 83 79 71 63 55 47 35 24 16 12 12 11 7 359 11
118 122 125 128 127 126 123 121 120 119 118 115 109 104 100 98 99 99 99 100 100 99 97 94 91 90 88 86 83 78 73 69 71 74 77 76 75 74 73 71 68 72 79 85 89 94 99 103 104 101 96 85 82 84 85 83 72 60 47 36 25 14 5 1 4 5 4 358 7
120 122 123 124 124 123 120 117 116 115 114 111 107 104 102 100 101 100 99 97 96 95 95 94 92 90 88 86 84 80 74 67 63 65 68 71 71 70 68 64 61 66 76 88 94 99 103 107 107 103 95 82 78 79 83 83 75 61 45 29 23 13 2 352 355 358 359 355 358
117 118 118 118 118 118 116 113 109 106 105 105 105 105 105 104 102 100 98 94 92 91 91 91 89 88 87 87 86 83 77 69 59 56 57 60 61 60 58 53 50 47 57 85 100 105 108 112 111 107 101 90 81 79 80 83 80 71 54 25 20 15 6 352 351 352 353 350 348